Location: Brabourne
(51.1333°N, 1.0000°E)
Time: 08:07:09
(UTC+00:00)

USA 290 - Pass Details

Date: 20 June 2021
Orbit: 401 x 412 km, 73.6° (Epoch: 01 August)

Event Time Altitude Azimuth Distance (km) Brightness Sun altitude
Exits shadow 01:11:40 13° 143° (SE) 1,298 4.4 -13.7°
Maximum altitude 01:13:26 19° 103° (ESE) 1,042 4.3 -13.6°
Drops below altitude 10° 01:15:48 10° 56° (NE) 1,471 5.8 -13.5°
Sets 01:18:12 0° 38° (NE) 2,335 7.5 -13.3°
